Location: ?????????
(54.7630°N, 39.4991°E)
Time: 11:48:24
(UTC+00:00)

Cosmos 1943 Rocket - Pass Details

Date: 14 April 2026
Orbit: 809 x 844 km, 71.0° (Epoch: 9 May)

Event Time Altitude Azimuth Distance (km) Brightness Sun altitude
Rises 19:04:54 0° 320° (NW) 3,415 7.0 -19.5°
Reaches altitude 10° 19:08:01 10° 303° (WNW) 2,474 5.6 -19.7°
Maximum altitude 19:11:52 19° 260° (W) 1,902 4.3 -20.0°
Drops below altitude 10° 19:15:43 10° 217° (SW) 2,457 4.4 -20.3°
Enters shadow 19:16:22 - 212° (SSW) 2,633 4.5 -20.4°
